Simultaneous Nadir Overpasses (SNOs) Predictions

Prediction of SNOs between FY3D and NOAA-19 Satellite Orbit:

Table of predicted SNOs for the next 14.0 days since TLE Epoch: 1/14/2024
Index Date (FY3D) Time (FY3D) Lat,Lon (FY3D) SZA (FY3D ) Date (NOAA-19) Time (NOAA-19) Lat,Lon (NOAA-19) SZA (NOAA-19 ) Distance(km) Time Diff (sec)
1 01/27/2024 05:41:15 -76.12, -89.15 85.28 01/27/2024 05:40:01 -76.09, -89.71 85.29 15.45 74
2 01/27/2024 06:32:02 76.18, 77.93 94.78 01/27/2024 06:30:53 76.18, 77.89 94.79 1.19 69
3 01/27/2024 07:22:48 -76.21,-114.84 85.21 01/27/2024 07:21:57 -76.20,-114.81 85.21 1.16 51
4 01/27/2024 08:13:33 76.18, 52.56 94.76 01/27/2024 08:12:51 76.20, 52.47 94.79 3.17 42
5 01/27/2024 09:04:19 -76.20,-140.21 85.23 01/27/2024 09:03:55 -76.22,-140.23 85.21 1.73 24
6 01/27/2024 09:55:05 76.22, 27.03 94.79 01/27/2024 09:54:49 76.22, 27.05 94.79 0.77 16
7 01/27/2024 10:45:51 -76.25,-165.74 85.20 01/27/2024 10:45:53 -76.24,-165.65 85.21 2.58 2
8 01/27/2024 11:36:36 76.22, 1.66 94.77 01/27/2024 11:36:47 76.24, 1.64 94.79 2.11 11
9 01/27/2024 12:27:22 -76.24, 168.89 85.22 01/27/2024 12:27:51 -76.26, 168.93 85.21 1.85 29
10 01/27/2024 13:18:08 76.26, -23.87 94.80 01/27/2024 13:18:45 76.26, -23.78 94.79 2.36 37
11 01/27/2024 14:08:53 -76.24, 143.53 85.24 01/27/2024 14:09:49 -76.28, 143.52 85.21 3.96 56
12 01/27/2024 14:59:39 76.26, -49.24 94.78 01/27/2024 15:00:43 76.28, -49.20 94.79 2.15 64
13 01/27/2024 15:50:32 -76.59, 116.82 84.87 01/27/2024 15:51:41 -76.56, 119.12 84.98 59.58 69



Historial Predications of SNOs between FY3D and NOAA-19
